Total_Precipitation_Accumulation
0.00 0.01 0.04 0.03 0.03 0.02 0.01 0.02 0.03 0.03 0.03 0.04 0.04 0.04 0.03 0.03 0.03 0.04 0.06 0.07 0.08 0.11 0.14 0.16 0.19 0.20 0.20 0.23 0.29 0.34 0.34 0.33 0.30 0.22 0.19 0.19 0.20 0.19 0.27 0.27 0.26 0.39 0.27
0.00 0.00 0.04 0.03 0.02 0.01 0.02 0.02 0.02 0.02 0.03 0.03 0.04 0.03 0.02 0.02 0.02 0.03 0.04 0.04 0.04 0.06 0.10 0.14 0.17 0.19 0.20 0.20 0.27 0.34 0.35 0.35 0.35 0.31 0.28 0.28 0.27 0.25 0.23 0.21 0.27 0.36 0.27
0.00 0.00 0.03 0.03 0.03 0.03 0.02 0.02 0.03 0.04 0.03 0.03 0.06 0.04 0.04 0.02 0.01 0.01 0.02 0.02 0.02 0.03 0.05 0.11 0.17 0.18 0.18 0.25 0.28 0.29 0.34 0.38 0.40 0.34 0.34 0.44 0.31 0.30 0.31 0.28 0.24 0.25 0.26
0.00 0.00 0.01 0.03 0.05 0.08 0.05 0.04 0.06 0.05 0.03 0.04 0.06 0.05 0.05 0.02 0.01 0.01 0.01 0.02 0.03 0.03 0.04 0.07 0.15 0.18 0.19 0.21 0.24 0.23 0.25 0.32 0.38 0.25 0.27 0.48 0.42 0.30 0.37 0.38 0.24 0.21 0.22
0.01 0.01 0.04 0.07 0.14 0.16 0.10 0.09 0.12 0.08 0.07 0.06 0.05 0.05 0.06 0.04 0.05 0.03 0.01 0.02 0.03 0.04 0.04 0.04 0.08 0.15 0.19 0.20 0.20 0.19 0.21 0.33 0.28 0.18 0.26 0.35 0.33 0.31 0.36 0.41 0.31 0.22 0.19
0.02 0.04 0.08 0.13 0.20 0.22 0.12 0.14 0.20 0.14 0.11 0.07 0.04 0.05 0.06 0.04 0.05 0.01 0.01 0.04 0.03 0.03 0.03 0.03 0.05 0.10 0.16 0.20 0.21 0.22 0.25 0.22 0.13 0.20 0.26 0.35 0.33 0.33 0.31 0.29 0.28 0.25 0.20
0.02 0.04 0.09 0.17 0.19 0.19 0.17 0.21 0.29 0.23 0.17 0.09 0.04 0.06 0.06 0.05 0.04 0.02 0.03 0.03 0.03 0.03 0.02 0.02 0.03 0.05 0.09 0.14 0.17 0.19 0.18 0.14 0.19 0.22 0.23 0.36 0.35 0.32 0.25 0.25 0.30 0.25 0.21
0.02 0.03 0.09 0.13 0.13 0.16 0.20 0.26 0.33 0.33 0.22 0.09 0.04 0.06 0.05 0.04 0.03 0.03 0.04 0.04 0.03 0.01 0.01 0.01 0.01 0.01 0.02 0.05 0.07 0.10 0.12 0.12 0.16 0.13 0.15 0.27 0.27 0.25 0.21 0.20 0.26 0.25 0.27
0.04 0.03 0.08 0.09 0.08 0.13 0.21 0.22 0.33 0.45 0.28 0.12 0.05 0.06 0.07 0.05 0.03 0.03 0.02 0.02 0.01 0.01 0.00 0.00 0.01 0.00 0.01 0.01 0.03 0.06 0.09 0.09 0.07 0.06 0.08 0.19 0.21 0.20 0.25 0.23 0.22 0.29 0.32
0.03 0.02 0.02 0.03 0.06 0.12 0.15 0.21 0.30 0.57 0.48 0.16 0.08 0.07 0.07 0.05 0.04 0.03 0.01 0.00 0.01 0.01 0.00 0.00 0.00 0.00 0.00 0.01 0.04 0.07 0.07 0.05 0.02 0.02 0.03 0.09 0.14 0.11 0.15 0.18 0.19 0.22 0.26
0.01 0.01 0.01 0.02 0.02 0.06 0.12 0.20 0.31 0.47 0.50 0.24 0.11 0.07 0.06 0.05 0.08 0.04 0.01 0.00 0.01 0.00 0.00 0.00 0.00 0.00 0.00 0.01 0.03 0.03 0.02 0.01 0.01 0.01 0.01 0.03 0.04 0.03 0.04 0.05 0.06 0.08 0.12
0.01 0.01 0.01 0.01 0.02 0.02 0.05 0.16 0.19 0.21 0.26 0.16 0.13 0.06 0.06 0.16 0.14 0.04 0.01 0.00 0.01 0.00 0.00 0.00 0.00 0.00 0.00 0.00 0.00 0.01 0.00 0.00 0.01 0.02 0.01 0.01 0.01 0.00 0.00 0.00 0.00 0.01 0.02
0.07 0.05 0.03 0.02 0.02 0.02 0.08 0.14 0.17 0.23 0.28 0.30 0.23 0.09 0.09 0.16 0.08 0.01 0.00 0.01 0.01 0.00 0.00 0.00 0.00 0.00 0.00 0.00 0.00 0.00 0.00 0.00 0.02 0.01 0.02 0.01 0.00 0.00 0.00 0.00 0.00 0.00 0.00
0.15 0.15 0.13 0.06 0.03 0.03 0.05 0.12 0.17 0.25 0.32 0.29 0.16 0.05 0.04 0.07 0.04 0.01 0.00 0.01 0.01 0.01 0.00 0.00 0.00 0.00 0.00 0.00 0.00 0.00 0.00 0.00 0.01 0.01 0.02 0.02 0.01 0.01 0.01 0.01 0.00 0.00 0.00
0.18 0.21 0.23 0.19 0.11 0.09 0.08 0.10 0.11 0.27 0.32 0.31 0.23 0.06 0.07 0.05 0.02 0.01 0.00 0.00 0.00 0.01 0.00 0.00 0.00 0.00 0.00 0.01 0.01 0.00 0.00 0.00 0.00 0.01 0.03 0.03 0.04 0.05 0.03 0.04 0.04 0.01 0.01
0.18 0.22 0.27 0.30 0.26 0.23 0.20 0.17 0.16 0.15 0.17 0.23 0.16 0.04 0.08 0.08 0.03 0.01 0.02 0.01 0.00 0.00 0.01 0.00 0.00 0.00 0.01 0.01 0.01 0.00 0.00 0.00 0.00 0.00 0.03 0.03 0.05 0.09 0.08 0.11 0.10 0.05 0.04
0.26 0.27 0.32 0.39 0.42 0.38 0.33 0.33 0.27 0.23 0.22 0.16 0.12 0.04 0.05 0.08 0.06 0.05 0.06 0.04 0.03 0.03 0.02 0.01 0.00 0.00 0.00 0.01 0.00 0.00 0.00 0.00 0.00 0.00 0.01 0.02 0.04 0.10 0.17 0.22 0.22 0.18 0.13
0.31 0.30 0.33 0.36 0.38 0.41 0.40 0.40 0.39 0.33 0.30 0.27 0.23 0.13 0.08 0.11 0.14 0.10 0.10 0.11 0.10 0.05 0.03 0.02 0.00 0.00 0.00 0.00 0.00 0.00 0.00 0.00 0.00 0.00 0.00 0.00 0.01 0.05 0.12 0.19 0.29 0.36 0.31
0.34 0.30 0.29 0.30 0.29 0.30 0.34 0.42 0.47 0.46 0.42 0.40 0.35 0.24 0.26 0.33 0.31 0.23 0.23 0.24 0.24 0.17 0.09 0.05 0.02 0.01 0.00 0.00 0.00 0.00 0.00 0.00 0.00 0.00 0.00 0.00 0.00 0.00 0.01 0.04 0.11 0.14 0.22
0.29 0.30 0.29 0.31 0.29 0.25 0.29 0.40 0.46 0.45 0.43 0.46 0.46 0.49 0.72 0.76 0.60 0.52 0.51 0.42 0.34 0.28 0.22 0.16 0.09 0.05 0.03 0.01 0.00 0.00 0.00 0.00 0.00 0.00 0.00 0.00 0.00 0.00 0.00 0.00 0.02 0.02 0.08
0.15 0.14 0.18 0.24 0.30 0.27 0.23 0.29 0.38 0.44 0.51 0.56 0.65 0.67 0.82 0.85 0.75 0.73 0.72 0.65 0.50 0.39 0.37 0.35 0.30 0.22 0.13 0.05 0.05 0.05 0.02 0.00 0.00 0.00 0.00 0.00 0.00 0.00 0.00 0.00 0.02 0.03 0.03
0.04 0.06 0.10 0.15 0.23 0.30 0.32 0.36 0.49 0.65 0.75 0.80 0.88 0.89 0.93 0.87 0.80 0.75 0.85 0.87 0.71 0.62 0.59 0.61 0.54 0.45 0.30 0.16 0.22 0.29 0.16 0.10 0.03 0.01 0.00 0.00 0.00 0.00 0.00 0.00 0.00 0.00 0.01
0.02 0.05 0.10 0.18 0.31 0.47 0.62 0.82 1.05 1.32 1.41 1.29 1.14 1.17 1.23 1.22 1.11 0.99 1.01 1.03 0.87 0.78 0.77 0.75 0.66 0.69 0.64 0.45 0.41 0.54 0.40 0.30 0.23 0.06 0.01 0.00 0.00 0.00 0.00 0.00 0.00 0.00 0.00
0.09 0.15 0.26 0.37 0.53 0.67 0.86 1.07 1.31 1.53 1.70 1.70 1.71 1.73 1.67 1.56 1.39 1.18 1.07 1.00 0.95 0.90 0.79 0.66 0.67 0.83 0.97 0.85 0.70 0.60 0.47 0.36 0.29 0.19 0.07 0.01 0.00 0.01 0.00 0.00 0.00 0.00 0.01
0.25 0.36 0.47 0.68 0.81 0.90 0.94 1.03 1.24 1.35 1.40 1.53 1.68 1.75 1.71 1.58 1.42 1.24 1.08 0.99 0.94 0.93 0.86 0.81 0.84 0.94 1.05 1.13 1.04 0.78 0.58 0.47 0.31 0.25 0.18 0.09 0.03 0.01 0.01 0.00 0.00 0.00 0.00
0.49 0.71 0.84 0.92 0.97 0.93 0.88 0.89 1.03 1.19 1.27 1.36 1.47 1.52 1.43 1.29 1.25 1.21 1.12 0.99 0.87 0.81 0.77 0.82 0.94 0.94 0.97 1.01 0.95 0.75 0.59 0.49 0.47 0.42 0.30 0.26 0.17 0.03 0.01 0.01 0.00 0.00 0.00